Temperature
12 12 12 12 12 12 12 12 12 11 11 11 11 11 11 11 11 11 11 11 11 11 11 11 11 11 11 11 11 11 11 11 11 10 11 11 11 11
12 12 12 12 12 12 12 12 12 11 11 11 11 11 11 11 11 11 11 11 11 11 11 11 11 11 11 11 11 11 10 10 10 10 10 10 10 10
12 12 12 11 11 11 11 11 11 11 11 11 11 11 11 11 10 10 10 10 10 10 10 10 10 10 10 10 10 10 10 10 10 10 10 10 10 10
11 11 11 11 11 11 11 11 11 11 11 11 11 10 10 10 10 10 10 10 10 10 10 10 10 10 10 10 10 10 10 10 10 10 10 10 10 9
11 11 11 11 11 11 11 11 11 11 11 11 10 10 10 10 10 10 10 10 10 10 10 10 9 9 9 9 9 9 9 9 9 9 9 9 9 9
11 11 11 11 11 11 11 10 10 10 10 10 10 10 10 10 10 10 9 9 9 9 9 9 9 9 9 9 9 9 9 9 9 9 9 9 9 9
11 11 10 10 10 10 10 10 10 10 10 10 10 10 10 10 9 9 9 9 9 9 9 9 9 9 9 9 9 9 9 9 9 9 9 9 9 9
11 10 10 10 10 10 10 10 10 10 10 10 10 9 9 9 9 9 9 9 8 9 9 9 8 9 8 8 8 9 9 8 8 8 8 8 8 8
10 10 10 10 10 10 10 10 10 10 10 10 9 9 9 9 9 9 9 9 8 8 8 8 8 8 8 8 8 8 8 8 8 8 8 8 8 8
10 10 10 10 10 10 10 10 10 9 9 9 9 9 9 9 9 9 9 8 8 8 8 8 8 8 8 8 8 8 8 8 8 8 8 8 8 8
10 10 10 10 10 9 9 9 9 9 9 9 9 9 9 9 9 8 8 8 8 8 8 7 7 7 8 8 7 7 7 8 8 8 8 8 8 8
9 9 9 9 9 9 9 9 9 9 9 8 8 8 8 8 8 8 8 8 7 7 7 7 7 7 7 7 7 7 7 7 7 7 7 7 7 8
9 9 9 9 9 9 9 9 9 8 8 8 8 8 8 8 8 8 7 7 7 7 7 7 7 7 7 7 7 7 7 7 7 7 7 7 7 7
9 9 9 9 9 8 8 8 8 8 8 8 8 8 8 8 8 7 7 7 7 7 7 7 7 7 6 6 6 6 7 7 7 7 7 7 7 7
8 8 8 8 8 8 8 8 8 8 7 7 7 7 7 7 7 7 7 7 7 7 6 6 6 6 6 6 6 6 6 6 6 6 6 6 6 6
8 8 8 8 8 8 7 7 7 7 7 7 7 7 7 7 7 6 6 6 6 6 6 6 6 6 6 6 6 6 6 6 6 6 6 6 6 6
8 7 7 7 7 7 7 7 7 7 7 6 6 6 6 6 6 6 6 6 6 6 6 6 6 5 5 5 5 5 5 5 5 6 6 6 6 6
7 7 7 7 7 7 7 7 6 6 6 6 6 6 6 6 6 6 5 5 5 5 5 5 5 5 5 5 5 5 5 5 5 5 5 5 6 6
7 7 6 6 6 6 6 6 6 6 6 6 6 6 5 5 5 5 5 5 5 5 5 5 5 5 5 5 5 5 5 5 5 5 5 5 5 6
6 6 6 6 6 6 6 6 6 5 5 5 5 5 5 5 5 5 5 4 5 5 5 5 5 5 5 5 5 5 5 5 5 5 5 5 5 5
6 6 6 6 5 5 5 5 5 5 5 5 5 5 5 5 4 4 4 4 4 4 4 4 4 4 4 4 4 4 4 4 4 5 5 5 5 5
6 6 5 5 5 5 5 5 5 5 5 5 5 5 4 4 4 4 4 4 4 4 4 4 4 4 4 4 4 4 4 4 4 4 4 4 4 4
5 5 5 5 5 5 5 5 5 5 5 4 4 4 4 4 4 4 4 4 4 4 3 3 3 3 3 3 3 3 3 4 4 4 4 4 4 4
Wind_Speed
0 0 0 0 0 0 1 1 1 0 1 1 0 1 3 4 5 3 3 3 2 2 2 2 2 3 3 4 4 4 4 4 4 4 4 4 4 4
0 1 0 0 0 1 1 0 0 1 1 1 1 1 2 3 4 3 4 4 2 2 2 1 2 2 2 3 3 3 4 4 4 4 4 4 4 4
1 0 1 1 1 1 0 0 1 1 1 1 1 1 2 2 2 2 3 3 2 2 2 1 1 2 2 3 3 3 4 4 5 5 4 4 4 4
1 1 1 0 0 0 0 1 1 1 2 1 1 1 1 1 2 1 1 2 2 3 2 1 1 2 2 3 3 3 4 4 5 5 5 4 4 4
1 1 1 1 1 1 0 1 1 1 1 2 1 0 0 1 1 1 0 0 1 2 3 1 1 1 2 2 2 2 3 4 4 5 5 4 4 5
1 1 1 1 1 1 1 1 1 1 1 1 1 1 1 0 2 0 1 1 1 0 1 1 1 2 2 2 2 2 2 3 4 4 4 4 4 5
0 0 0 1 1 0 0 1 1 1 1 1 1 1 0 1 1 1 1 0 1 0 1 0 0 1 2 2 2 3 3 3 3 3 3 4 4 4
0 0 1 1 1 1 1 1 1 1 1 1 1 1 1 1 1 1 1 0 2 1 1 1 1 1 1 2 2 3 3 3 3 3 3 4 4 4
0 0 0 0 1 1 1 0 0 1 2 2 1 2 2 2 2 1 1 1 2 2 1 1 0 1 1 1 3 3 3 3 3 3 4 4 4 4
1 0 1 1 1 1 1 1 1 1 2 2 2 2 1 1 2 3 2 1 1 0 1 1 1 1 2 2 3 4 4 4 4 4 5 5 5 5
0 1 1 2 1 1 1 1 1 1 1 2 2 2 1 1 1 1 1 1 1 2 1 1 1 1 2 2 3 4 5 5 5 5 5 6 6 6
1 1 1 2 2 1 1 1 0 1 1 1 1 2 1 1 2 2 2 2 1 1 1 1 1 1 2 2 1 2 3 5 6 6 6 6 6 3
1 1 1 3 2 1 1 1 1 1 1 1 1 1 1 1 1 1 1 2 2 2 2 1 1 1 1 2 2 2 2 2 3 5 6 7 6 3
1 0 2 4 3 2 1 1 1 0 1 0 0 1 1 1 1 1 0 1 1 3 3 2 2 2 1 2 3 2 2 2 2 2 3 5 6 6
2 2 1 3 4 3 3 3 2 1 1 1 1 1 1 1 1 0 0 1 1 2 2 2 2 2 2 2 2 2 2 3 2 1 1 1 2 2
1 2 3 3 2 2 2 2 2 2 2 2 2 2 1 0 0 0 1 1 1 2 2 2 1 2 2 3 2 3 2 2 2 2 1 1 1 2
1 1 1 1 1 1 1 2 2 2 2 2 2 1 1 1 1 1 1 1 1 2 2 2 2 1 2 2 3 3 3 3 2 2 2 2 3 2
2 2 2 2 2 2 2 2 2 2 2 2 2 1 1 1 2 2 2 2 2 2 2 2 1 1 2 3 3 3 3 3 2 2 2 2 4 3
3 3 2 3 3 2 2 2 2 2 2 2 2 2 2 2 2 2 2 2 2 2 3 2 2 2 3 4 3 2 2 3 3 2 3 3 4 3
3 3 3 3 3 3 3 2 2 2 2 2 2 2 2 2 2 2 2 2 2 2 2 2 2 3 4 4 3 3 4 3 3 3 3 3 3 3
3 3 3 3 2 3 3 3 2 2 2 2 3 3 3 3 3 3 3 4 3 2 3 3 4 4 2 1 2 3 3 4 4 3 3 2 3 3
3 3 3 3 3 2 2 2 2 2 3 3 3 3 3 3 3 3 3 3 3 3 3 3 2 1 1 2 3 3 3 3 4 5 4 3 2 3
4 3 3 3 3 2 2 3 3 2 2 3 2 2 2 3 3 3 3 3 3 3 3 2 2 2 2 2 3 3 3 3 2 2 3 6 7 7
Wind_Direction
158 179 130 150 104 96 99 138 148 204 286 266 108 150 119 115 127 118 108 129 106 88 65 52 43 38 23 10 5 1 356 348 343 346 345 336 329 323
67 75 31 75 29 74 88 320 179 171 215 265 244 173 121 124 146 140 136 137 120 117 95 64 47 29 9 4 6 5 4 358 347 339 339 339 339 337
241 147 237 173 184 170 122 22 311 137 165 281 308 117 114 120 106 125 127 125 125 134 126 89 42 18 12 0 355 359 359 355 348 343 336 331 335 339
210 195 239 229 214 176 166 208 242 190 153 183 282 42 94 128 132 142 136 147 144 163 165 139 46 9 359 355 357 356 354 354 351 350 342 334 335 338
205 206 227 221 235 236 233 204 202 180 139 156 201 190 214 127 107 112 4 71 195 172 170 179 252 309 328 332 335 344 349 351 350 353 357 352 346 341
222 214 209 225 246 210 211 186 149 151 170 150 164 197 197 142 106 129 311 320 304 155 132 201 248 285 300 313 320 332 336 341 342 345 354 359 351 342
245 183 127 84 57 111 203 150 114 148 178 167 186 171 143 101 169 210 217 285 310 220 107 247 214 256 279 283 289 309 316 323 327 332 343 349 345 340
244 201 155 107 83 102 86 112 126 157 200 195 208 184 190 180 177 207 201 114 297 285 117 275 171 194 241 230 278 289 285 286 295 309 324 329 328 329
265 266 283 123 71 98 155 122 142 227 209 193 197 219 203 181 162 181 223 228 244 239 133 274 268 238 286 263 259 262 262 267 280 290 301 307 310 313
213 193 109 76 66 52 193 181 198 251 228 215 204 218 179 154 169 190 204 218 260 297 95 265 295 294 305 285 250 243 260 271 276 281 291 292 294 296
185 82 113 119 107 46 106 200 214 266 227 189 197 201 205 274 198 152 157 148 265 273 235 188 263 294 279 261 250 241 254 262 266 275 288 294 292 296
221 152 133 133 140 106 118 148 215 276 285 242 230 244 233 254 256 200 189 184 219 265 258 190 249 298 301 277 255 256 266 271 270 273 285 292 292 289
242 178 161 157 144 144 124 171 216 256 297 259 188 206 230 225 237 242 191 184 204 236 242 190 244 250 246 276 288 266 248 276 273 275 277 280 279 267
246 206 179 183 185 184 198 207 182 349 294 281 229 227 213 228 229 217 200 294 230 217 229 213 217 222 245 280 283 283 283 274 261 258 269 283 278 272
244 207 184 191 195 208 220 220 207 195 202 199 213 235 225 215 181 130 20 347 312 274 261 250 202 213 213 246 263 272 285 283 257 258 262 259 258 265
259 204 187 189 199 211 220 228 220 210 196 203 219 229 219 161 150 201 227 255 285 296 300 297 291 212 240 254 251 269 266 257 275 272 275 281 277 257
217 209 199 183 201 210 201 207 213 211 227 231 223 228 230 209 223 217 212 226 229 254 283 308 331 309 212 245 257 258 260 267 262 260 291 293 280 268
195 203 217 210 204 206 207 214 212 212 220 227 222 223 222 228 232 225 212 221 238 241 243 255 277 323 323 297 247 252 262 265 270 260 262 271 280 278
204 212 217 213 209 210 210 209 216 216 206 215 218 220 220 232 234 230 224 233 247 250 249 239 226 227 264 279 286 275 258 274 277 269 256 249 259 262
210 212 220 217 207 207 212 218 221 216 210 213 210 218 217 222 231 237 233 238 247 260 271 261 239 236 240 250 259 276 263 252 262 272 273 266 266 267
216 221 220 221 218 208 208 212 215 217 217 224 223 221 219 217 227 233 239 249 250 252 254 256 256 256 262 289 289 282 279 266 250 247 261 268 284 285
211 220 225 222 215 209 208 206 214 220 219 227 231 227 224 223 226 229 233 240 243 248 254 258 265 263 258 261 270 277 287 298 288 284 284 266 238 241
217 219 218 212 207 200 203 209 211 218 218 228 235 238 236 231 229 230 236 238 239 242 246 251 255 253 251 248 257 271 279 288 304 320 309 302 282 274
Height
1520 1521 1521 1521 1522 1522 1522 1523 1523 1523 1523 1524 1524 1524 1524 1524 1524 1524 1523 1524 1524 1523 1523 1522 1522 1521 1520 1520 1520 1519 1519 1519 1518 1518 1517 1517 1517 1516
1518 1519 1519 1519 1520 1520 1520 1520 1521 1522 1522 1522 1522 1523 1522 1522 1522 1522 1522 1522 1522 1522 1522 1521 1520 1520 1519 1519 1518 1518 1517 1517 1516 1515 1514 1514 1514 1513
1516 1517 1517 1518 1518 1518 1518 1519 1519 1520 1520 1520 1521 1521 1521 1521 1521 1521 1521 1521 1521 1521 1521 1520 1519 1519 1518 1518 1517 1516 1516 1515 1514 1512 1511 1510 1510 1510
1515 1515 1516 1516 1516 1516 1516 1517 1517 1518 1518 1518 1519 1519 1519 1519 1519 1519 1520 1520 1519 1519 1519 1519 1518 1517 1517 1516 1515 1515 1514 1513 1512 1509 1507 1506 1506 1507
1513 1513 1514 1514 1514 1515 1515 1515 1515 1516 1516 1517 1517 1518 1518 1518 1518 1518 1518 1518 1518 1518 1518 1517 1517 1516 1515 1515 1514 1514 1513 1512 1510 1508 1505 1504 1505 1505
1511 1512 1512 1512 1513 1513 1513 1513 1513 1514 1514 1515 1515 1516 1516 1516 1516 1516 1516 1516 1517 1517 1516 1516 1515 1515 1514 1513 1513 1512 1511 1510 1509 1508 1506 1505 1504 1504
1509 1509 1510 1510 1510 1511 1511 1511 1511 1511 1512 1513 1513 1513 1514 1514 1514 1514 1514 1515 1515 1515 1514 1514 1513 1513 1512 1512 1511 1511 1510 1509 1508 1507 1506 1504 1504 1503
1507 1507 1508 1508 1508 1508 1509 1509 1509 1509 1510 1510 1511 1511 1511 1512 1512 1513 1513 1512 1512 1514 1513 1512 1512 1511 1511 1510 1510 1509 1508 1507 1506 1505 1504 1503 1503 1502
1505 1505 1505 1505 1505 1506 1506 1506 1507 1507 1508 1509 1508 1509 1510 1510 1510 1510 1510 1511 1511 1511 1511 1510 1510 1509 1509 1508 1508 1507 1506 1506 1505 1504 1503 1502 1501 1500
1503 1503 1503 1503 1503 1503 1503 1503 1504 1504 1505 1506 1506 1507 1508 1508 1508 1508 1508 1509 1509 1509 1509 1508 1507 1507 1507 1506 1506 1505 1504 1504 1503 1502 1501 1500 1499 1498
1500 1500 1500 1500 1500 1501 1501 1500 1501 1502 1503 1503 1504 1504 1505 1505 1506 1506 1506 1506 1506 1506 1506 1506 1505 1505 1504 1504 1504 1503 1502 1501 1501 1500 1499 1498 1497 1496
1497 1497 1497 1497 1498 1498 1498 1498 1498 1499 1499 1500 1501 1501 1502 1502 1503 1503 1503 1503 1503 1503 1504 1504 1503 1503 1502 1502 1502 1501 1500 1499 1499 1498 1497 1496 1495 1494
1493 1493 1494 1494 1495 1495 1495 1495 1495 1496 1496 1497 1497 1498 1499 1499 1500 1500 1501 1501 1501 1501 1502 1502 1501 1501 1501 1500 1499 1499 1498 1497 1496 1496 1495 1494 1493 1492
1490 1490 1491 1491 1491 1492 1492 1492 1492 1493 1493 1494 1494 1495 1495 1496 1497 1498 1498 1498 1499 1499 1499 1499 1498 1498 1498 1497 1496 1496 1495 1495 1494 1493 1492 1492 1491 1490
1487 1487 1487 1488 1488 1488 1489 1489 1489 1489 1490 1490 1491 1492 1493 1493 1494 1494 1495 1495 1495 1495 1496 1496 1496 1495 1495 1494 1493 1493 1492 1492 1491 1490 1489 1489 1488 1487
1483 1483 1484 1484 1484 1484 1485 1485 1486 1486 1487 1487 1488 1489 1490 1490 1491 1491 1491 1491 1492 1492 1492 1493 1492 1492 1491 1491 1491 1490 1490 1489 1488 1488 1487 1486 1485 1484
1479 1480 1480 1480 1480 1481 1481 1482 1482 1483 1483 1484 1485 1486 1486 1487 1487 1488 1488 1488 1488 1488 1488 1489 1489 1489 1488 1488 1487 1486 1486 1486 1485 1484 1483 1482 1481 1481
1476 1475 1476 1476 1477 1477 1478 1478 1479 1480 1480 1481 1482 1482 1483 1483 1484 1484 1485 1485 1485 1485 1485 1485 1485 1485 1485 1484 1485 1483 1483 1482 1481 1481 1480 1479 1477 1477
1471 1471 1472 1472 1473 1474 1474 1475 1475 1476 1477 1477 1478 1478 1479 1480 1480 1481 1481 1481 1481 1481 1481 1482 1481 1481 1480 1479 1480 1480 1479 1478 1478 1477 1476 1476 1474 1474
1466 1467 1468 1468 1469 1470 1470 1471 1472 1473 1473 1474 1474 1475 1475 1476 1476 1477 1477 1477 1477 1477 1477 1478 1478 1478 1477 1477 1476 1475 1476 1475 1474 1473 1473 1472 1471 1471
1462 1462 1463 1464 1465 1466 1467 1467 1468 1469 1469 1469 1470 1471 1471 1472 1472 1473 1473 1473 1474 1473 1473 1473 1474 1474 1474 1474 1472 1471 1471 1472 1471 1470 1469 1468 1467 1466
1457 1458 1459 1460 1460 1461 1462 1463 1464 1464 1465 1465 1466 1466 1467 1468 1468 1468 1469 1469 1469 1469 1469 1469 1470 1470 1470 1469 1468 1467 1467 1467 1467 1467 1466 1466 1464 1462
1453 1454 1455 1455 1456 1457 1458 1458 1459 1460 1460 1461 1461 1462 1462 1463 1463 1464 1464 1464 1464 1465 1465 1465 1465 1465 1465 1465 1464 1463 1463 1462 1462 1461 1461 1461 1461 1460